Regional Weather Roundup
Issued by NWS Binghamton, NY

Home | Current Version | Previous Version | Text Only | Print | Product List | Glossary On
Versions: 1 2 3 4 5 6 7 8 9 10 11 12 13 14 15 16 17 18 19 20 21 22 23 24 25 26 27 28 29 30 31 32 33 34 35 36 37 38 39 40 41 42 43 44 45 46 47 48 49 50
000
ASUS41 KBGM 290410
RWRBGM
RWRBGM
BINGHAMTON REGIONAL WEATHER ROUNDUP
NATIONAL WEATHER SERVICE BINGHAMTON NY
1200 AM EDT SUN MAR 29 2015

Note: "fair" indicates few or no clouds below 12,000 feet with no
significant weather and/or obstructions to visibility.

* = Station(s) that does not report precipitation, such as rain,
snow, etc, also no thunder or fog.

!NYZ009-015>018-022>025-036-037-044>046-055>057-062-290500
...CENTRAL NEW YORK...

CITY           SKY/WX    TMP DP  RH WIND       PRES   REMARKS
BINGHAMTON     CLEAR     15   4  61 W5        30.11R WCI   8
CORTLAND       FAIR      12   9  85 CALM      30.17S
DANSVILLE      CLEAR     17   9  70 S3        30.23R
ELMIRA         CLEAR     19   7  59 SW7       30.19R WCI  10
ITHACA         CLEAR     11   6  80 CALM      30.18R
MONTICELLO     CLEAR     18   1  49 NW14G21   30.10R WCI   4
NORWICH        CLEAR     12   5  73 CALM        N/A
ONEONTA        CLEAR     12   1  62 CALM      30.08S
PENN YAN       CLEAR     22   8  55 W8        30.18R WCI  12
ROME           CLEAR     16   4  59 CALM      30.20S
SIDNEY         CLEAR     16   9  73 W3        30.16S
SYRACUSE       CLEAR     19  11  70 CALM      30.19S
$$

!PAZ038>040-043-044-047-048-072-290500
...NORTHEAST PENNSYLVANIA...

CITY           SKY/WX    TMP DP  RH WIND       PRES   REMARKS
HAZLETON       CLOUDY    21   3  45 NW12      30.14R WCI   9
SCRANTON       CLOUDY    22   4  46 N7        30.16R WCI  13
TOWANDA*         N/A     18   7  62 SW6       30.21S WCI   9
$$
&&
KEY
WCI = WIND CHILL INDEX
VSB = VISIBILITY
HX  = HEAT INDEX
$$


USA.gov is the U.S. government's official web portal to all federal, state and local government web resources and services.